QPF
0.00 0.00 0.00 0.00 0.00 0.00 0.00 0.00 0.01 0.01 0.02 0.06 0.07 0.02 0.01 0.01 0.01 0.01 0.01 0.02 0.02 0.03 0.03 0.03 0.02 0.02 0.02 0.02 0.01 0.02 0.03 0.04 0.05 0.05 0.06 0.04 0.02 0.01 0.02 0.03 0.03 0.04 0.05 0.04
0.00 0.00 0.00 0.00 0.00 0.00 0.00 0.01 0.01 0.01 0.03 0.04 0.02 0.01 0.00 0.01 0.01 0.01 0.01 0.01 0.01 0.01 0.03 0.02 0.02 0.02 0.01 0.01 0.01 0.02 0.03 0.03 0.04 0.04 0.04 0.04 0.02 0.01 0.01 0.02 0.04 0.05 0.06 0.07
0.00 0.00 0.00 0.00 0.00 0.00 0.00 0.01 0.01 0.01 0.04 0.03 0.01 0.01 0.01 0.01 0.01 0.00 0.00 0.01 0.01 0.01 0.01 0.01 0.02 0.02 0.02 0.02 0.01 0.01 0.02 0.02 0.03 0.04 0.04 0.04 0.03 0.02 0.02 0.02 0.03 0.03 0.03 0.03
0.00 0.00 0.01 0.01 0.00 0.00 0.00 0.00 0.00 0.00 0.00 0.01 0.01 0.01 0.01 0.01 0.01 0.01 0.01 0.01 0.01 0.01 0.02 0.02 0.02 0.02 0.02 0.01 0.01 0.01 0.01 0.02 0.02 0.03 0.04 0.04 0.04 0.03 0.02 0.02 0.03 0.04 0.03 0.02
0.01 0.03 0.02 0.02 0.01 0.00 0.00 0.00 0.00 0.00 0.00 0.01 0.01 0.01 0.01 0.01 0.01 0.02 0.01 0.01 0.00 0.00 0.00 0.01 0.01 0.00 0.00 0.00 0.01 0.01 0.01 0.01 0.02 0.03 0.04 0.04 0.04 0.04 0.04 0.03 0.03 0.03 0.02 0.02
0.01 0.02 0.03 0.04 0.02 0.00 0.00 0.01 0.01 0.00 0.00 0.00 0.01 0.02 0.02 0.01 0.01 0.01 0.01 0.01 0.01 0.00 0.01 0.01 0.00 0.00 0.00 0.01 0.01 0.01 0.02 0.02 0.01 0.02 0.03 0.03 0.04 0.04 0.04 0.05 0.05 0.04 0.03 0.03
0.00 0.01 0.02 0.01 0.00 0.00 0.01 0.01 0.01 0.01 0.00 0.01 0.01 0.01 0.02 0.01 0.01 0.01 0.00 0.00 0.01 0.01 0.01 0.01 0.01 0.01 0.01 0.01 0.01 0.01 0.01 0.02 0.02 0.03 0.03 0.03 0.04 0.04 0.05 0.05 0.05 0.04 0.03 0.03
0.01 0.01 0.01 0.00 0.00 0.01 0.01 0.01 0.01 0.01 0.01 0.01 0.01 0.01 0.01 0.01 0.01 0.01 0.01 0.01 0.01 0.01 0.01 0.01 0.01 0.01 0.02 0.02 0.01 0.01 0.01 0.02 0.02 0.02 0.01 0.02 0.03 0.04 0.04 0.04 0.04 0.04 0.04 0.03
0.03 0.02 0.01 0.00 0.00 0.01 0.01 0.01 0.01 0.00 0.01 0.01 0.01 0.01 0.01 0.01 0.01 0.01 0.01 0.01 0.01 0.01 0.00 0.00 0.01 0.01 0.01 0.02 0.01 0.01 0.01 0.02 0.02 0.02 0.02 0.02 0.03 0.04 0.03 0.03 0.03 0.03 0.04 0.04
0.03 0.02 0.01 0.00 0.01 0.01 0.01 0.02 0.01 0.01 0.01 0.01 0.01 0.01 0.00 0.00 0.00 0.00 0.00 0.00 0.00 0.00 0.01 0.01 0.01 0.01 0.01 0.01 0.01 0.01 0.02 0.02 0.03 0.03 0.03 0.04 0.04 0.04 0.03 0.03 0.03 0.03 0.03 0.04
0.02 0.02 0.01 0.01 0.01 0.01 0.01 0.02 0.02 0.01 0.00 0.00 0.00 0.00 0.00 0.00 0.00 0.00 0.00 0.00 0.00 0.01 0.01 0.01 0.02 0.02 0.01 0.01 0.02 0.02 0.03 0.03 0.03 0.04 0.04 0.05 0.04 0.04 0.03 0.03 0.03 0.03 0.03 0.03
0.02 0.01 0.01 0.01 0.00 0.00 0.01 0.01 0.01 0.01 0.00 0.00 0.00 0.00 0.00 0.00 0.00 0.00 0.00 0.01 0.01 0.01 0.01 0.02 0.02 0.02 0.02 0.03 0.04 0.07 0.06 0.06 0.05 0.04 0.04 0.04 0.04 0.04 0.03 0.02 0.02 0.02 0.01 0.02
0.01 0.01 0.01 0.00 0.00 0.00 0.01 0.01 0.01 0.01 0.00 0.00 0.00 0.00 0.00 0.00 0.00 0.01 0.01 0.01 0.01 0.02 0.02 0.02 0.02 0.02 0.02 0.02 0.06 0.13 0.13 0.11 0.09 0.07 0.05 0.04 0.03 0.03 0.03 0.03 0.03 0.02 0.02 0.02
0.00 0.00 0.00 0.00 0.00 0.00 0.01 0.01 0.01 0.01 0.01 0.01 0.01 0.01 0.01 0.01 0.01 0.01 0.01 0.00 0.00 0.01 0.01 0.03 0.03 0.03 0.02 0.02 0.03 0.06 0.12 0.14 0.10 0.10 0.07 0.04 0.03 0.02 0.03 0.03 0.03 0.03 0.03 0.03
0.00 0.00 0.00 0.00 0.01 0.00 0.01 0.01 0.01 0.01 0.01 0.01 0.02 0.02 0.03 0.02 0.01 0.01 0.01 0.00 0.00 0.00 0.01 0.02 0.02 0.03 0.03 0.03 0.03 0.04 0.07 0.08 0.07 0.06 0.04 0.03 0.02 0.03 0.03 0.03 0.04 0.04 0.03 0.04
0.00 0.00 0.00 0.01 0.02 0.01 0.01 0.01 0.01 0.01 0.01 0.02 0.03 0.03 0.03 0.02 0.01 0.01 0.01 0.00 0.00 0.01 0.02 0.02 0.02 0.02 0.02 0.02 0.04 0.05 0.06 0.06 0.05 0.04 0.03 0.02 0.02 0.02 0.02 0.03 0.03 0.04 0.03 0.03
0.01 0.01 0.01 0.01 0.02 0.02 0.01 0.01 0.00 0.00 0.01 0.01 0.02 0.03 0.04 0.03 0.02 0.02 0.02 0.01 0.01 0.02 0.03 0.04 0.03 0.02 0.02 0.03 0.04 0.04 0.04 0.04 0.04 0.03 0.03 0.02 0.02 0.03 0.03 0.03 0.03 0.03 0.03 0.02
0.02 0.02 0.02 0.02 0.02 0.02 0.01 0.01 0.01 0.01 0.01 0.02 0.03 0.03 0.03 0.05 0.05 0.04 0.05 0.05 0.04 0.03 0.03 0.03 0.03 0.02 0.02 0.03 0.04 0.03 0.02 0.03 0.02 0.02 0.02 0.02 0.02 0.03 0.03 0.04 0.04 0.04 0.04 0.03
0.01 0.01 0.01 0.01 0.01 0.01 0.01 0.01 0.01 0.01 0.01 0.01 0.01 0.02 0.03 0.04 0.04 0.04 0.04 0.05 0.04 0.03 0.03 0.03 0.02 0.01 0.02 0.03 0.03 0.04 0.02 0.02 0.02 0.02 0.03 0.03 0.03 0.03 0.04 0.04 0.05 0.06 0.05 0.05
0.01 0.01 0.00 0.00 0.00 0.01 0.01 0.02 0.02 0.01 0.02 0.03 0.04 0.03 0.04 0.06 0.06 0.05 0.04 0.03 0.03 0.02 0.03 0.03 0.02 0.02 0.02 0.03 0.04 0.04 0.04 0.03 0.02 0.02 0.03 0.04 0.04 0.05 0.05 0.05 0.06 0.06 0.05 0.04
0.01 0.01 0.01 0.02 0.02 0.02 0.02 0.03 0.02 0.01 0.01 0.02 0.04 0.04 0.03 0.04 0.05 0.04 0.03 0.02 0.02 0.02 0.02 0.02 0.02 0.02 0.02 0.03 0.03 0.04 0.04 0.03 0.02 0.02 0.03 0.04 0.05 0.05 0.05 0.06 0.05 0.04 0.04 0.04
0.01 0.01 0.02 0.03 0.03 0.03 0.02 0.02 0.01 0.01 0.02 0.04 0.04 0.04 0.03 0.04 0.03 0.02 0.02 0.02 0.01 0.02 0.01 0.02 0.02 0.02 0.02 0.03 0.04 0.04 0.04 0.03 0.03 0.04 0.04 0.05 0.05 0.06 0.06 0.05 0.05 0.05 0.05 0.05
0.02 0.02 0.02 0.03 0.02 0.03 0.03 0.03 0.03 0.02 0.03 0.03 0.03 0.03 0.02 0.03 0.02 0.01 0.01 0.01 0.01 0.02 0.01 0.02 0.03 0.02 0.02 0.02 0.04 0.05 0.04 0.04 0.05 0.05 0.05 0.06 0.07 0.08 0.06 0.06 0.05 0.05 0.05 0.05
0.03 0.04 0.04 0.03 0.02 0.03 0.03 0.02 0.02 0.02 0.03 0.03 0.03 0.02 0.02 0.02 0.02 0.01 0.01 0.02 0.02 0.02 0.01 0.02 0.04 0.03 0.03 0.04 0.05 0.05 0.04 0.04 0.05 0.06 0.06 0.06 0.06 0.06 0.05 0.04 0.03 0.03 0.03 0.04
0.04 0.04 0.04 0.03 0.03 0.03 0.03 0.02 0.02 0.03 0.03 0.03 0.02 0.02 0.02 0.02 0.02 0.02 0.02 0.02 0.02 0.02 0.02 0.03 0.05 0.05 0.04 0.05 0.06 0.04 0.03 0.04 0.05 0.05 0.05 0.06 0.06 0.05 0.05 0.04 0.05 0.06 0.05 0.04
0.04 0.04 0.04 0.04 0.04 0.03 0.03 0.03 0.03 0.03 0.04 0.05 0.04 0.03 0.02 0.03 0.04 0.03 0.03 0.02 0.02 0.03 0.03 0.03 0.04 0.05 0.04 0.04 0.05 0.05 0.04 0.04 0.04 0.04 0.04 0.05 0.05 0.06 0.06 0.08 0.09 0.09 0.07 0.04
0.05 0.05 0.05 0.05 0.04 0.04 0.03 0.03 0.03 0.03 0.05 0.06 0.05 0.04 0.04 0.06 0.06 0.04 0.03 0.03 0.03 0.03 0.04 0.04 0.03 0.03 0.04 0.04 0.04 0.04 0.03 0.02 0.03 0.03 0.03 0.05 0.06 0.07 0.08 0.09 0.09 0.08 0.05 0.04
MSLP
1001.78 1001.61 1001.38 1001.12 1000.88 1000.69 1000.56 1000.52 1000.56 1000.68 1000.88 1001.16 1001.51 1001.92 1002.40 1002.94 1003.52 1004.13 1004.76 1005.37 1005.96 1006.51 1007.00 1007.45 1007.84 1008.20 1008.52 1008.82 1009.10 1009.36 1009.59 1009.78 1009.92 1010.02 1010.06 1010.04 1009.97 1009.87 1009.73 1009.57 1009.39 1009.21 1009.01 1008.82
1002.30 1002.07 1001.71 1001.27 1000.80 1000.36 1000.01 999.79 999.72 999.82 1000.09 1000.50 1001.04 1001.68 1002.37 1003.09 1003.79 1004.47 1005.10 1005.67 1006.18 1006.64 1007.05 1007.44 1007.82 1008.18 1008.54 1008.90 1009.24 1009.56 1009.83 1010.05 1010.21 1010.31 1010.34 1010.31 1010.23 1010.13 1009.99 1009.84 1009.68 1009.51 1009.32 1009.13
1002.58 1002.32 1001.88 1001.32 1000.70 1000.10 999.59 999.24 999.10 999.18 999.50 1000.02 1000.71 1001.51 1002.36 1003.20 1003.99 1004.70 1005.31 1005.83 1006.27 1006.64 1006.99 1007.33 1007.68 1008.06 1008.46 1008.86 1009.26 1009.63 1009.95 1010.20 1010.37 1010.46 1010.49 1010.45 1010.38 1010.27 1010.14 1010.00 1009.85 1009.68 1009.50 1009.30
1002.55 1002.27 1001.80 1001.19 1000.49 999.80 999.21 998.80 998.62 998.71 999.07 999.67 1000.46 1001.37 1002.33 1003.25 1004.10 1004.83 1005.42 1005.89 1006.27 1006.58 1006.87 1007.18 1007.52 1007.91 1008.34 1008.79 1009.23 1009.64 1009.98 1010.25 1010.42 1010.51 1010.53 1010.48 1010.40 1010.30 1010.18 1010.05 1009.91 1009.75 1009.56 1009.35
1002.23 1001.93 1001.46 1000.83 1000.12 999.41 998.80 998.37 998.20 998.31 998.71 999.37 1000.23 1001.22 1002.24 1003.22 1004.11 1004.85 1005.44 1005.89 1006.23 1006.51 1006.78 1007.07 1007.42 1007.82 1008.27 1008.74 1009.21 1009.63 1009.99 1010.25 1010.41 1010.48 1010.48 1010.42 1010.33 1010.23 1010.12 1010.01 1009.89 1009.75 1009.57 1009.35
1001.71 1001.39 1000.90 1000.28 999.59 998.90 998.32 997.91 997.76 997.90 998.34 999.04 999.95 1000.99 1002.05 1003.08 1003.99 1004.76 1005.37 1005.83 1006.17 1006.46 1006.73 1007.04 1007.39 1007.81 1008.28 1008.77 1009.24 1009.66 1010.00 1010.24 1010.38 1010.42 1010.39 1010.31 1010.21 1010.11 1010.02 1009.93 1009.83 1009.72 1009.57 1009.37
1001.16 1000.78 1000.28 999.67 999.00 998.35 997.81 997.44 997.32 997.49 997.95 998.67 999.61 1000.66 1001.76 1002.81 1003.76 1004.56 1005.20 1005.70 1006.08 1006.41 1006.72 1007.05 1007.44 1007.88 1008.36 1008.85 1009.32 1009.72 1010.03 1010.24 1010.34 1010.34 1010.27 1010.17 1010.05 1009.95 1009.87 1009.81 1009.76 1009.69 1009.59 1009.43
1000.72 1000.28 999.74 999.13 998.49 997.88 997.37 997.03 996.94 997.12 997.58 998.30 999.23 1000.29 1001.39 1002.46 1003.43 1004.27 1004.96 1005.51 1005.95 1006.33 1006.69 1007.07 1007.49 1007.96 1008.45 1008.95 1009.40 1009.78 1010.06 1010.23 1010.28 1010.25 1010.14 1010.01 1009.88 1009.78 1009.71 1009.69 1009.68 1009.67 1009.63 1009.54
1000.51 999.99 999.42 998.81 998.19 997.60 997.12 996.81 996.72 996.89 997.33 998.02 998.91 999.94 1001.02 1002.08 1003.07 1003.94 1004.67 1005.27 1005.76 1006.20 1006.62 1007.04 1007.50 1007.99 1008.49 1008.98 1009.42 1009.79 1010.04 1010.17 1010.20 1010.13 1009.99 1009.83 1009.69 1009.59 1009.53 1009.53 1009.57 1009.62 1009.66 1009.65
1000.55 999.99 999.40 998.79 998.19 997.63 997.16 996.86 996.76 996.91 997.30 997.93 998.76 999.73 1000.76 1001.79 1002.76 1003.63 1004.38 1005.01 1005.55 1006.03 1006.48 1006.93 1007.41 1007.91 1008.42 1008.90 1009.34 1009.68 1009.92 1010.04 1010.04 1009.95 1009.80 1009.63 1009.47 1009.36 1009.31 1009.33 1009.41 1009.51 1009.62 1009.70
1000.80 1000.24 999.67 999.09 998.52 997.99 997.55 997.25 997.14 997.24 997.57 998.12 998.87 999.75 1000.71 1001.67 1002.60 1003.44 1004.18 1004.81 1005.35 1005.83 1006.29 1006.75 1007.22 1007.71 1008.21 1008.68 1009.11 1009.45 1009.68 1009.80 1009.81 1009.72 1009.56 1009.38 1009.22 1009.10 1009.05 1009.08 1009.17 1009.32 1009.48 1009.62
1001.16 1000.66 1000.15 999.64 999.14 998.66 998.26 997.97 997.84 997.90 998.17 998.64 999.29 1000.08 1000.94 1001.82 1002.68 1003.46 1004.15 1004.74 1005.25 1005.70 1006.12 1006.54 1006.97 1007.43 1007.89 1008.34 1008.75 1009.08 1009.33 1009.46 1009.48 1009.41 1009.27 1009.09 1008.93 1008.80 1008.74 1008.76 1008.85 1009.01 1009.19 1009.38
1001.50 1001.12 1000.73 1000.33 999.91 999.51 999.16 998.90 998.77 998.80 999.02 999.42 999.99 1000.68 1001.45 1002.24 1003.01 1003.71 1004.33 1004.86 1005.30 1005.68 1006.03 1006.37 1006.73 1007.12 1007.52 1007.93 1008.31 1008.64 1008.89 1009.04 1009.10 1009.05 1008.94 1008.78 1008.62 1008.48 1008.40 1008.40 1008.47 1008.61 1008.80 1009.00
1001.76 1001.52 1001.28 1001.01 1000.71 1000.40 1000.12 999.90 999.78 999.80 999.98 1000.33 1000.83 1001.45 1002.14 1002.86 1003.55 1004.18 1004.72 1005.16 1005.51 1005.80 1006.05 1006.30 1006.56 1006.85 1007.17 1007.52 1007.86 1008.17 1008.43 1008.60 1008.68 1008.68 1008.59 1008.46 1008.31 1008.17 1008.07 1008.04 1008.08 1008.18 1008.34 1008.53
1001.91 1001.83 1001.73 1001.58 1001.39 1001.18 1000.96 1000.79 1000.69 1000.71 1000.88 1001.19 1001.66 1002.23 1002.87 1003.53 1004.16 1004.73 1005.21 1005.58 1005.85 1006.04 1006.19 1006.33 1006.48 1006.67 1006.90 1007.17 1007.45 1007.73 1007.98 1008.17 1008.28 1008.31 1008.27 1008.16 1008.03 1007.89 1007.78 1007.72 1007.72 1007.78 1007.90 1008.05
1001.99 1002.04 1002.05 1002.00 1001.90 1001.74 1001.57 1001.42 1001.33 1001.36 1001.51 1001.82 1002.26 1002.81 1003.43 1004.07 1004.68 1005.22 1005.66 1005.98 1006.20 1006.32 1006.39 1006.44 1006.49 1006.58 1006.71 1006.90 1007.12 1007.36 1007.59 1007.79 1007.92 1007.98 1007.98 1007.91 1007.80 1007.68 1007.56 1007.48 1007.45 1007.47 1007.54 1007.65
1002.08 1002.20 1002.27 1002.27 1002.18 1002.03 1001.86 1001.70 1001.60 1001.61 1001.75 1002.03 1002.46 1003.01 1003.63 1004.28 1004.90 1005.45 1005.89 1006.22 1006.42 1006.52 1006.55 1006.53 1006.52 1006.53 1006.59 1006.70 1006.87 1007.06 1007.27 1007.46 1007.61 1007.70 1007.73 1007.70 1007.63 1007.53 1007.43 1007.35 1007.30 1007.30 1007.33 1007.39
1002.28 1002.40 1002.45 1002.41 1002.28 1002.07 1001.84 1001.62 1001.46 1001.42 1001.51 1001.77 1002.18 1002.72 1003.36 1004.03 1004.69 1005.28 1005.77 1006.14 1006.38 1006.51 1006.54 1006.52 1006.48 1006.46 1006.47 1006.54 1006.66 1006.82 1007.01 1007.19 1007.35 1007.46 1007.53 1007.54 1007.51 1007.45 1007.38 1007.32 1007.27 1007.26 1007.28 1007.32
1002.61 1002.67 1002.63 1002.48 1002.23 1001.91 1001.56 1001.22 1000.96 1000.82 1000.84 1001.03 1001.41 1001.94 1002.58 1003.28 1003.99 1004.65 1005.22 1005.67 1005.99 1006.19 1006.29 1006.32 1006.32 1006.31 1006.32 1006.38 1006.48 1006.62 1006.79 1006.97 1007.14 1007.27 1007.37 1007.43 1007.44 1007.43 1007.40 1007.38 1007.36 1007.36 1007.39 1007.42
1003.08 1003.01 1002.83 1002.53 1002.12 1001.63 1001.11 1000.63 1000.22 999.95 999.86 999.97 1000.28 1000.77 1001.40 1002.12 1002.88 1003.61 1004.27 1004.83 1005.27 1005.59 1005.80 1005.93 1006.01 1006.06 1006.12 1006.20 1006.31 1006.46 1006.63 1006.81 1006.98 1007.14 1007.27 1007.36 1007.42 1007.46 1007.49 1007.51 1007.54 1007.57 1007.62 1007.67
1003.59 1003.37 1003.03 1002.56 1001.98 1001.31 1000.62 999.97 999.41 999.00 998.79 998.79 999.01 999.44 1000.04 1000.76 1001.54 1002.34 1003.09 1003.76 1004.33 1004.79 1005.15 1005.41 1005.60 1005.76 1005.90 1006.04 1006.19 1006.36 1006.54 1006.73 1006.91 1007.09 1007.24 1007.36 1007.47 1007.56 1007.64 1007.71 1007.79 1007.87 1007.95 1008.02
1004.03 1003.68 1003.19 1002.57 1001.83 1001.02 1000.18 999.39 998.69 998.15 997.82 997.71 997.84 998.19 998.74 999.44 1000.23 1001.06 1001.88 1002.66 1003.35 1003.95 1004.45 1004.86 1005.20 1005.48 1005.72 1005.94 1006.15 1006.36 1006.57 1006.77 1006.97 1007.15 1007.32 1007.47 1007.61 1007.74 1007.87 1007.99 1008.12 1008.24 1008.36 1008.46
1004.31 1003.85 1003.26 1002.53 1001.69 1000.78 999.86 998.97 998.19 997.56 997.13 996.94 996.99 997.26 997.75 998.40 999.17 1000.01 1000.88 1001.73 1002.52 1003.24 1003.88 1004.43 1004.91 1005.31 1005.67 1005.98 1006.26 1006.52 1006.76 1006.98 1007.19 1007.38 1007.56 1007.73 1007.90 1008.06 1008.22 1008.39 1008.55 1008.71 1008.86 1008.99
1004.35 1003.83 1003.19 1002.42 1001.55 1000.62 999.68 998.78 997.97 997.32 996.85 996.60 996.59 996.81 997.23 997.83 998.56 999.39 1000.27 1001.15 1002.01 1002.82 1003.56 1004.23 1004.83 1005.35 1005.80 1006.20 1006.55 1006.86 1007.14 1007.38 1007.60 1007.80 1007.99 1008.17 1008.35 1008.53 1008.72 1008.91 1009.10 1009.29 1009.46 1009.60
1004.13 1003.61 1002.97 1002.23 1001.40 1000.53 999.65 998.81 998.05 997.43 996.99 996.74 996.70 996.88 997.25 997.80 998.48 999.27 1000.13 1001.01 1001.90 1002.75 1003.56 1004.31 1005.00 1005.61 1006.15 1006.62 1007.03 1007.39 1007.70 1007.97 1008.20 1008.42 1008.61 1008.80 1008.99 1009.18 1009.38 1009.59 1009.79 1009.99 1010.16 1010.31
1003.71 1003.21 1002.63 1001.96 1001.24 1000.49 999.73 999.02 998.38 997.86 997.48 997.28 997.26 997.42 997.76 998.26 998.89 999.62 1000.44 1001.29 1002.17 1003.03 1003.87 1004.66 1005.40 1006.07 1006.67 1007.20 1007.67 1008.07 1008.42 1008.71 1008.97 1009.19 1009.40 1009.60 1009.80 1010.00 1010.20 1010.41 1010.62 1010.81 1010.97 1011.10
1003.16 1002.71 1002.21 1001.66 1001.08 1000.48 999.89 999.34 998.86 998.47 998.21 998.08 998.11 998.28 998.60 999.06 999.64 1000.31 1001.07 1001.87 1002.71 1003.55 1004.38 1005.18 1005.94 1006.65 1007.30 1007.87 1008.38 1008.83 1009.21 1009.54 1009.83 1010.08 1010.31 1010.52 1010.73 1010.94 1011.14 1011.34 1011.53 1011.70 1011.84 1011.94
Thickness
5814 5821 5824 5821 5821 5822 5819 5817 5807 5807 5803 5804 5808 5810 5815 5817 5813 5808 5803 5798 5796 5793 5790 5788 5785 5782 5780 5777 5774 5771 5765 5761 5757 5755 5751 5748 5745 5742 5739 5736 5733 5730 5728 5725
5800 5812 5815 5811 5818 5819 5817 5818 5815 5811 5800 5810 5813 5812 5810 5809 5805 5799 5796 5794 5792 5790 5786 5782 5779 5777 5774 5771 5768 5765 5760 5756 5753 5750 5746 5742 5739 5737 5733 5730 5727 5725 5722 5719
5783 5802 5803 5793 5811 5812 5813 5820 5817 5802 5801 5808 5803 5801 5800 5799 5798 5794 5791 5789 5786 5784 5781 5778 5775 5772 5768 5766 5763 5759 5754 5751 5748 5745 5741 5738 5735 5731 5728 5725 5722 5718 5716 5712
5780 5780 5761 5796 5828 5825 5816 5817 5821 5815 5811 5808 5802 5800 5801 5799 5792 5787 5785 5782 5780 5778 5776 5774 5771 5767 5764 5761 5757 5752 5748 5745 5742 5739 5736 5733 5729 5725 5722 5720 5716 5713 5710 5708
5768 5760 5768 5793 5810 5811 5801 5798 5813 5809 5806 5804 5802 5796 5789 5792 5789 5782 5779 5776 5775 5774 5771 5767 5764 5761 5757 5753 5750 5745 5741 5738 5736 5733 5729 5726 5723 5720 5717 5714 5710 5708 5705 5703
5762 5751 5749 5776 5802 5813 5801 5780 5801 5803 5797 5796 5789 5772 5769 5781 5780 5776 5774 5771 5768 5766 5763 5758 5754 5753 5748 5744 5740 5736 5735 5733 5731 5728 5725 5721 5718 5715 5713 5709 5705 5702 5700 5698
5757 5754 5764 5786 5800 5800 5767 5762 5787 5792 5790 5787 5778 5772 5771 5774 5770 5767 5765 5763 5761 5757 5752 5748 5747 5744 5738 5735 5732 5731 5730 5727 5724 5722 5720 5718 5714 5711 5707 5704 5700 5697 5695 5693
5754 5745 5750 5784 5788 5773 5766 5779 5780 5782 5783 5778 5774 5772 5768 5763 5757 5756 5754 5752 5750 5745 5742 5740 5739 5735 5729 5726 5726 5725 5722 5719 5717 5715 5714 5714 5708 5704 5702 5698 5694 5691 5688 5685
5751 5750 5767 5780 5776 5777 5779 5773 5774 5774 5774 5770 5765 5761 5757 5753 5749 5747 5745 5743 5741 5737 5733 5732 5730 5727 5721 5720 5719 5717 5714 5711 5709 5709 5707 5706 5702 5698 5695 5691 5687 5684 5681 5678
5749 5753 5762 5768 5772 5772 5771 5768 5769 5769 5766 5762 5753 5750 5747 5744 5740 5737 5735 5733 5731 5728 5724 5721 5720 5718 5715 5713 5712 5708 5705 5703 5702 5700 5699 5698 5695 5692 5688 5685 5681 5677 5675 5672
5739 5746 5751 5755 5759 5760 5760 5760 5759 5757 5757 5751 5745 5741 5737 5733 5730 5728 5725 5723 5722 5718 5714 5712 5711 5709 5707 5705 5702 5699 5696 5695 5694 5693 5691 5689 5687 5683 5680 5677 5673 5669 5667 5665
5727 5738 5738 5739 5749 5753 5749 5747 5748 5746 5744 5743 5738 5732 5729 5724 5722 5719 5716 5714 5711 5708 5705 5703 5701 5698 5698 5696 5693 5689 5687 5686 5686 5685 5684 5682 5679 5674 5671 5668 5665 5662 5659 5656
5733 5737 5736 5737 5740 5743 5741 5740 5740 5737 5734 5731 5728 5724 5719 5715 5712 5709 5707 5704 5701 5698 5696 5694 5691 5689 5689 5687 5685 5681 5679 5678 5678 5677 5676 5674 5672 5668 5663 5658 5656 5653 5651 5648
5728 5726 5721 5724 5726 5730 5730 5731 5731 5728 5723 5721 5717 5713 5709 5705 5702 5699 5696 5694 5693 5690 5687 5685 5682 5680 5680 5680 5677 5674 5673 5671 5669 5668 5668 5666 5664 5662 5658 5654 5650 5647 5643 5640
5716 5716 5715 5717 5718 5718 5719 5719 5716 5712 5708 5706 5704 5701 5697 5692 5689 5688 5687 5686 5684 5681 5678 5676 5673 5671 5672 5671 5668 5667 5665 5664 5662 5660 5659 5658 5656 5654 5651 5648 5645 5641 5638 5634
5706 5707 5707 5705 5705 5705 5705 5704 5701 5699 5697 5694 5691 5689 5687 5684 5681 5679 5677 5675 5672 5669 5667 5666 5664 5663 5663 5661 5659 5658 5656 5654 5652 5651 5650 5649 5647 5644 5642 5639 5637 5634 5630 5627
5692 5690 5692 5691 5692 5693 5693 5693 5692 5689 5687 5683 5681 5679 5676 5674 5670 5668 5666 5664 5663 5661 5659 5656 5654 5654 5653 5652 5650 5649 5648 5646 5643 5642 5642 5640 5638 5636 5634 5631 5628 5626 5623 5621
5688 5687 5687 5685 5683 5682 5682 5682 5681 5679 5677 5675 5673 5669 5666 5662 5659 5657 5656 5654 5652 5651 5650 5648 5646 5645 5644 5643 5640 5639 5639 5638 5636 5635 5633 5632 5630 5628 5626 5624 5622 5619 5617 5614
5681 5680 5680 5679 5677 5675 5673 5671 5670 5670 5668 5666 5662 5659 5655 5652 5650 5648 5647 5644 5641 5640 5640 5640 5636 5636 5635 5634 5631 5630 5630 5630 5629 5628 5626 5623 5621 5620 5618 5616 5614 5612 5611 5607
5673 5672 5672 5671 5669 5667 5664 5663 5662 5660 5658 5656 5653 5650 5646 5643 5642 5641 5639 5636 5635 5635 5634 5631 5630 5628 5627 5626 5623 5623 5622 5622 5621 5619 5618 5616 5614 5612 5611 5609 5607 5605 5603 5600
5664 5664 5663 5661 5659 5658 5657 5655 5652 5650 5649 5647 5644 5642 5640 5638 5636 5633 5630 5628 5628 5628 5627 5624 5623 5621 5620 5617 5615 5616 5615 5614 5612 5611 5609 5607 5605 5604 5603 5602 5600 5597 5595 5592
5655 5655 5654 5652 5651 5649 5649 5648 5646 5643 5641 5640 5638 5636 5633 5630 5629 5627 5624 5622 5622 5619 5619 5619 5616 5612 5610 5608 5610 5609 5607 5606 5604 5603 5600 5599 5597 5595 5594 5593 5591 5589 5587 5585
5647 5646 5646 5645 5643 5642 5642 5641 5639 5637 5635 5633 5631 5629 5627 5625 5623 5621 5618 5619 5617 5613 5612 5611 5607 5604 5602 5603 5603 5602 5600 5599 5597 5595 5593 5592 5591 5589 5587 5586 5584 5581 5580 5578
5639 5639 5638 5639 5638 5635 5633 5633 5633 5631 5630 5628 5627 5625 5622 5620 5618 5617 5615 5611 5608 5606 5607 5604 5601 5599 5596 5598 5597 5596 5593 5592 5591 5589 5587 5586 5585 5583 5581 5579 5577 5575 5573 5570
5633 5633 5633 5631 5630 5629 5628 5628 5626 5625 5624 5622 5620 5619 5617 5614 5611 5609 5607 5606 5603 5601 5602 5600 5596 5594 5593 5593 5591 5589 5587 5586 5584 5583 5580 5579 5577 5575 5573 5571 5569 5567 5565 5563
5627 5627 5627 5625 5624 5623 5623 5622 5620 5619 5617 5614 5612 5612 5610 5607 5605 5603 5601 5600 5599 5596 5596 5595 5593 5590 5590 5588 5586 5584 5582 5580 5579 5578 5575 5573 5571 5569 5566 5564 5562 5559 5557 5555
5624 5623 5621 5620 5620 5619 5618 5617 5615 5613 5611 5609 5606 5605 5603 5601 5598 5596 5595 5594 5593 5592 5591 5590 5588 5586 5584 5582 5580 5578 5576 5574 5572 5570 5568 5566 5563 5560 5558 5555 5552 5550 5547 5545